Location: Del Amo
(33.8464°N, 118.2104°W)
Time: 08:38:22
(UTC+00:00)

Vanguard 1 Rocket - Pass Details

Date: 22 September 2024
Orbit: 650 x 4218 km, 34.3° (Epoch: 09 October)

Event Time Altitude Azimuth Distance (km) Brightness Sun altitude
Rises 16:10:43 0° 288° (WNW) 7,063 11.4 29.4°
Reaches altitude 10° 16:15:04 10° 284° (WNW) 6,410 11.3 30.3°
Maximum altitude 16:36:37 51° 217° (SW) 4,840 11.4 34.3°
Drops below altitude 10° 16:59:56 10° 149° (SSE) 6,796 12.8 38.5°
Sets 17:04:49 0° 144° (SE) 7,481 12.9 39.4°
